Cloverdale, Indiana, United States (46120)
Lat: 39.51N, Lon: 86.79W
Wx Zone: INZ045
Local Info
Past Weather Observations for Tuesday, September 30, 2014

NOTE: This archive is for the closest National Weather Service station to Cloverdale. Information may differ from the station used for current weather conditions.

Click here for Long-term Archive

Time Weather Temperature Dewpoint Humidity Pressure Winds Precip Visibility
23:53
Clear
57°F / 14°C 52°F / 11°C 82% 29.98 in
(1015 mb)
ENE 4.6 mph
(ENE 7 kph)
- 10SM
22:53
Clear
59°F / 15°C 54°F / 12°C 82% 29.98 in
(1015 mb)
NE 5.8 mph
(NE 9 kph)
- 10SM
21:53
Clear
55°F / 13°C 54°F / 12°C 94% 29.98 in
(1015 mb)
Calm - 10SM
20:53
Clear
59°F / 15°C 54°F / 12°C 82% 29.98 in
(1015 mb)
Calm - 10SM
19:53
Clear
63°F / 17°C 55°F / 13°C 77% 29.95 in
(1014 mb)
N 6.9 mph
(N 11 kph)
- 10SM
17:53
Partly Cloudy
72°F / 22°C 57°F / 14°C 61% 29.92 in
(1013 mb)
N 8.1 mph
(N 13 kph)
- 10SM
16:53
Clear
73°F / 23°C 57°F / 14°C 57% 29.92 in
(1013 mb)
N 5.8 mph
(N 9 kph)
- 10SM
15:53
Clear
75°F / 24°C 59°F / 15°C 57% 29.92 in
(1013 mb)
Variable 3.5 mph
(Variable 6 kph)
- 10SM
14:53
Clear
75°F / 24°C 57°F / 14°C 54% 29.95 in
(1014 mb)
Variable 4.6 mph
(Variable 7 kph)
- 10SM
13:53
Clear
72°F / 22°C 57°F / 14°C 61% 29.95 in
(1014 mb)
Variable 3.5 mph
(Variable 6 kph)
- 10SM
12:53
Partly Cloudy
68°F / 20°C 57°F / 14°C 69% 29.98 in
(1015 mb)
Variable 4.6 mph
(Variable 7 kph)
- 10SM
12:48
Partly Cloudy
68°F / 20°C 59°F / 15°C 73% 29.98 in
(1015 mb)
NNE 6.9 mph
(NNE 11 kph)
- 10SM
11:53
Overcast
Hazy
64°F / 18°C 57°F / 14°C 78% 29.98 in
(1015 mb)
N 6.9 mph
(N 11 kph)
- 6SM
10:53
Overcast
Fog And Mist
63°F / 17°C 57°F / 14°C 83% 29.98 in
(1015 mb)
N 6.9 mph
(N 11 kph)
- 5SM
10:50
Overcast
Hazy
63°F / 17°C 57°F / 14°C 83% 29.98 in
(1015 mb)
Variable 5.8 mph
(Variable 9 kph)
- 4SM
10:12
Overcast
Fog And Mist
61°F / 16°C 57°F / 14°C 88% 29.98 in
(1015 mb)
N 5.8 mph
(N 9 kph)
- 3SM
09:53
Overcast
Fog And Mist
61°F / 16°C 57°F / 14°C 88% 29.98 in
(1015 mb)
N 6.9 mph
(N 11 kph)
- 2 1/2SM
09:39
Overcast
Fog And Mist
61°F / 16°C 57°F / 14°C 88% 29.98 in
(1015 mb)
NNE 5.8 mph
(NNE 9 kph)
- 2SM
09:17
Overcast
Fog And Mist
57°F / 14°C 57°F / 14°C 100% 29.98 in
(1015 mb)
N 6.9 mph
(N 11 kph)
- 1SM
08:53
Overcast
Fog And Mist
57°F / 14°C 57°F / 14°C 100% 29.98 in
(1015 mb)
N 5.8 mph
(N 9 kph)
- 3/4SM
08:41
Overcast
Fog
57°F / 14°C 55°F / 13°C 94% 29.98 in
(1015 mb)
NNE 5.8 mph
(NNE 9 kph)
- 1/2SM
08:29
Mostly Cloudy
Fog And Mist
57°F / 14°C 55°F / 13°C 94% 29.98 in
(1015 mb)
NE 8.1 mph
(NE 13 kph)
- 1 3/4SM
08:23
Mostly Cloudy
Fog And Mist
57°F / 14°C 55°F / 13°C 94% 29.98 in
(1015 mb)
N 5.8 mph
(N 9 kph)
- 3SM
08:14
Partly Cloudy
Fog And Mist
59°F / 15°C 55°F / 13°C 88% 29.98 in
(1015 mb)
N 9.2 mph
(N 15 kph)
- 4SM
07:53
Clear
Fog And Mist
59°F / 15°C 55°F / 13°C 88% 29.98 in
(1015 mb)
N 6.9 mph
(N 11 kph)
- 6SM
06:53
Clear
54°F / 12°C 52°F / 11°C 94% 29.98 in
(1015 mb)
Calm - 9SM
05:53
Clear
57°F / 14°C 52°F / 11°C 82% 29.98 in
(1015 mb)
Calm - 10SM
04:53
Clear
55°F / 13°C 54°F / 12°C 94% 29.95 in
(1014 mb)
Calm - 10SM
03:53
Clear
54°F / 12°C 52°F / 11°C 94% 29.95 in
(1014 mb)
Calm - 10SM
02:53
Clear
Fog And Mist
54°F / 12°C 52°F / 11°C 94% 29.95 in
(1014 mb)
Calm - 6SM
01:53
Clear
54°F / 12°C 52°F / 11°C 94% 29.95 in
(1014 mb)
Calm - 8SM
00:53
Clear
Fog And Mist
55°F / 13°C 52°F / 11°C 88% 29.95 in
(1014 mb)
Calm - 6SM
Time Weather Temperature Dewpoint Humidity Pressure Winds Precip Visibility


Weather for websites

WeatherForYou.com, LLC is not responsible for any damages or problems caused by this service. Current weather conditions are obtained from the closest station including government and personal stations which may have varying degrees of accuracy. Weather forecasts are derived from the NOAA NDFD. Like all things, this site belongs to Jesus Christ... He just trusts me to maintain it. If you have any questions or comments email webmaster@weatherforyou.com

Copyright © 2014, WeatherForYou.com LLC. All rights reserved.